CW2523 Weather Reports


Display with metric or nautical units.
time (UTC)temp
F
wind
direction
speed
MPH
gust
MPH
rain 1hr
in
rain 24hr
in
rain mn
in
humidity
%
barometer
mb
20260906153104 92 60 2.0 10.0 0.00 0.00 0.00 51 1016.5
20260906152554 92 33 3.0 10.0 0.00 0.00 0.00 51 1016.5
20260906152055 91 4 2.0 7.0 0.00 0.00 0.00 53 1016.5
20260906151601 91 35 3.0 7.0 0.00 0.00 0.00 55 1016.5
20260906151050 90 114 1.0 7.0 0.00 0.00 0.00 54 1016.5
20260906150550 90 38 2.0 7.0 0.00 0.00 0.00 55 1016.5
20260906150104 90 0 3.0 7.0 0.00 0.00 0.00 54 1016.5
20260906145550 89 100 2.0 7.0 0.00 0.00 0.00 55 1016.5
20260906145052 89 41 2.0 7.0 0.00 0.00 0.00 55 1016.4
20260906144623 88 97 3.0 7.0 0.00 0.00 0.00 58 1016.5
20260906144050 88 84 2.0 7.0 0.00 0.00 0.00 58 1016.5
20260906143550 87 38 1.0 6.0 0.00 0.00 0.00 60 1016.3
20260906143103 87 104 1.0 6.0 0.00 0.00 0.00 62 1016.3
20260906142550 86 0 1.0 8.0 0.00 0.00 0.00 63 1016.4
20260906142051 85 89 2.0 8.0 0.00 0.00 0.00 65 1016.5
20260906141613 85 87 2.0 7.0 0.00 0.00 0.00 65 1016.6
20260906141053 84 90 3.0 9.0 0.00 0.00 0.00 65 1016.6
20260906140552 84 91 1.0 9.0 0.00 0.00 0.00 67 1016.6
20260906140104 82 93 0.0 4.0 0.00 0.00 0.00 70 1016.5
20260906135550 81 0 0.0 2.0 0.00 0.00 0.00 73 1016.3
20260906135050 80 66 0.0 1.0 0.00 0.00 0.00 77 1016.2
20260906134607 79 0 0.0 1.0 0.00 0.00 0.00 79 1016.1
20260906134050 78 0 0.0 1.0 0.00 0.00 0.00 81 1016.1
20260906133549 77 0 0.0 2.0 0.00 0.00 0.00 82 1016.2
20260906133055 76 0 0.0 2.0 0.00 0.00 0.00 83 1016.3
20260906132553 75 0 0.0 2.0 0.00 0.00 0.00 84 1016.2
20260906132049 75 0 0.0 1.0 0.00 0.00 0.00 85 1016.2
20260906131601 74 0 0.0 0.0 0.00 0.00 0.00 85 1016.0
20260906131050 74 0 0.0 0.0 0.00 0.00 0.00 86 1016.0
20260906130552 73 0 0.0 0.0 0.00 0.00 0.00 87 1016.0
20260906130106 73 0 0.0 1.0 0.00 0.00 0.00 86 1016.0
20260906125552 72 0 0.0 1.0 0.00 0.00 0.00 87 1016.1
20260906125055 72 0 0.0 1.0 0.00 0.00 0.00 88 1016.0
20260906124559 71 0 0.0 0.0 0.00 0.00 0.00 88 1016.0
20260906124049 71 0 0.0 1.0 0.00 0.00 0.00 88 1015.9
20260906123550 70 0 0.0 1.0 0.00 0.00 0.00 88 1015.9
20260906123108 70 66 0.0 1.0 0.00 0.00 0.00 88 1015.9
20260906122550 70 0 0.0 1.0 0.00 0.00 0.00 88 1015.8
20260906122050 70 0 0.0 0.0 0.00 0.00 0.00 87 1015.7
20260906121606 70 0 0.0 0.0 0.00 0.00 0.00 87 1015.7
20260906121050 70 0 0.0 0.0 0.00 0.00 0.00 87 1015.6
20260906120550 70 0 0.0 1.0 0.00 0.00 0.00 87 1015.6
20260906120106 70 0 0.0 1.0 0.00 0.00 0.00 87 1015.5
20260906115550 70 0 0.0 0.0 0.00 0.00 0.00 88 1015.4
20260906115050 70 0 0.0 0.0 0.00 0.00 0.00 88 1015.3
20260906114558 70 0 0.0 0.0 0.00 0.00 0.00 89 1015.3
20260906114049 70 0 0.0 2.0 0.00 0.00 0.00 89 1015.4
20260906113551 70 0 0.0 2.0 0.00 0.00 0.00 89 1015.3
20260906113104 70 66 1.0 4.0 0.00 0.00 0.00 89 1015.3
20260906112633 69 66 0.0 4.0 0.00 0.00 0.00 89 1015.4
20260906112051 69 45 1.0 4.0 0.00 0.00 0.00 89 1015.3
20260906111658 69 0 1.0 3.0 0.00 0.00 0.00 88 1015.3
20260906111050 69 112 1.0 2.0 0.00 0.00 0.00 88 1015.4
20260906110550 69 112 0.0 2.0 0.00 0.00 0.00 87 1015.2
20260906110103 69 0 0.0 0.0 0.00 0.00 0.00 87 1015.2
20260906105554 70 0 0.0 0.0 0.00 0.00 0.00 87 1015.2
20260906105050 70 0 0.0 0.0 0.00 0.00 0.00 87 1015.1
20260906104624 70 0 0.0 0.0 0.00 0.00 0.00 87 1015.2
20260906104051 70 0 0.0 0.0 0.00 0.00 0.00 87 1015.1
20260906103550 70 0 0.0 0.0 0.00 0.00 0.00 87 1015.1
20260906103110 70 0 0.0 0.0 0.00 0.00 0.00 87 1015.2
20260906102552 70 0 0.0 2.0 0.00 0.00 0.00 87 1015.1
20260906102050 70 0 0.0 2.0 0.00 0.00 0.00 87 1015.1
20260906101553 70 112 1.0 2.0 0.00 0.00 0.00 87 1014.9
20260906101050 70 112 0.0 1.0 0.00 0.00 0.00 86 1014.9
20260906100550 70 0 0.0 0.0 0.00 0.00 0.00 86 1014.9
20260906100105 70 0 0.0 0.0 0.00 0.00 0.00 87 1014.9
20260906095550 70 0 0.0 2.0 0.00 0.00 0.00 87 1014.8
20260906095050 70 0 0.0 2.0 0.00 0.00 0.00 87 1014.8
20260906094639 70 112 0.0 2.0 0.00 0.00 0.00 87 1014.7
20260906094050 70 0 0.0 1.0 0.00 0.00 0.00 86 1014.7
20260906093550 70 112 0.0 1.0 0.00 0.00 0.00 86 1014.7
20260906093104 70 0 0.0 0.0 0.00 0.00 0.00 86 1014.6
20260906092553 71 0 0.0 0.0 0.00 0.00 0.00 85 1014.5
20260906092052 71 0 0.0 0.0 0.00 0.00 0.00 85 1014.6
20260906091611 71 0 0.0 2.0 0.00 0.00 0.00 86 1014.5
20260906091139 71 0 0.0 2.0 0.00 0.00 0.00 86 1014.5
20260906090551 71 112 1.0 2.0 0.00 0.00 0.00 85 1014.5
20260906090100 71 236 0.0 2.0 0.00 0.00 0.00 85 1014.5
20260906085556 71 0 0.0 0.0 0.00 0.00 0.00 84 1014.4
20260906085055 71 0 0.0 0.0 0.00 0.00 0.00 84 1014.5
20260906084606 71 0 0.0 0.0 0.00 0.00 0.00 84 1014.5
20260906084054 71 0 0.0 0.0 0.00 0.00 0.00 84 1014.4
20260906083549 71 0 0.0 0.0 0.00 0.00 0.00 83 1014.4
20260906083054 71 0 0.0 0.0 0.00 0.00 0.00 83 1014.4
20260906082550 72 0 0.0 0.0 0.00 0.00 0.00 83 1014.3
20260906082050 72 0 0.0 0.0 0.00 0.00 0.00 83 1014.4
20260906081603 72 0 0.0 1.0 0.00 0.00 0.00 81 1014.4
20260906081127 72 0 0.0 1.0 0.00 0.00 0.00 81 1014.5
20260906080551 72 0 0.0 1.0 0.00 0.00 0.00 82 1014.7
20260906080124 73 0 0.0 1.0 0.00 0.00 0.00 81 1014.6
20260906075550 73 0 0.0 0.0 0.00 0.00 0.00 80 1014.5
20260906075050 73 0 0.0 0.0 0.00 0.00 0.00 80 1014.5
20260906074558 73 0 0.0 1.0 0.00 0.00 0.00 80 1014.5
20260906074049 73 0 0.0 1.0 0.00 0.00 0.00 80 1014.5
20260906073550 73 0 0.0 0.0 0.00 0.00 0.00 80 1014.5
20260906073104 73 0 0.0 0.0 0.00 0.00 0.00 80 1014.6
20260906072736 73 0 0.0 2.0 0.00 0.00 0.00 80 1014.6
20260906071601 73 351 0.0 2.0 0.00 0.00 0.00 80 1014.7
20260906071052 74 0 0.0 2.0 0.00 0.00 0.00 80 1014.9
20260906070552 74 351 1.0 2.0 0.00 0.00 0.00 80 1014.8
20260906070104 74 0 0.0 2.0 0.00 0.00 0.00 80 1014.8
20260906065550 74 351 1.0 2.0 0.00 0.00 0.00 80 1015.0
20260906065051 74 351 0.0 2.0 0.00 0.00 0.00 79 1015.0
20260906064553 74 0 0.0 0.0 0.00 0.00 0.00 78 1015.0
20260906064050 74 0 0.0 0.0 0.00 0.00 0.00 78 1015.0
20260906063550 74 0 0.0 0.0 0.00 0.00 0.00 77 1015.0
20260906063055 74 0 0.0 0.0 0.00 0.00 0.00 78 1014.9
20260906062551 74 0 0.0 0.0 0.00 0.00 0.00 78 1015.0
20260906062055 74 0 0.0 0.0 0.00 0.00 0.00 79 1014.9
20260906061605 74 0 0.0 0.0 0.00 0.00 0.00 78 1015.0
20260906061050 74 0 0.0 0.0 0.00 0.00 0.00 78 1014.9
20260906060552 74 0 0.0 0.0 0.00 0.00 0.00 77 1014.9
20260906060130 74 0 0.0 0.0 0.00 0.00 0.00 77 1014.9
20260906055553 75 0 0.0 0.0 0.00 0.00 0.00 76 1015.0
20260906055050 75 0 0.0 0.0 0.00 0.00 0.00 76 1015.2
20260906054557 75 0 0.0 0.0 0.00 0.00 0.00 77 1015.2
20260906054051 75 0 0.0 0.0 0.00 0.00 0.00 76 1015.1
20260906053550 75 0 0.0 0.0 0.00 0.00 0.00 76 1015.0
20260906053110 75 0 0.0 1.0 0.00 0.00 0.00 76 1015.0
20260906052554 76 0 0.0 2.0 0.00 0.00 0.00 76 1015.0
20260906052051 76 0 0.0 2.0 0.00 0.00 0.00 76 1014.9
20260906051605 76 0 0.0 2.0 0.00 0.00 0.00 75 1014.8
20260906051055 76 0 0.0 2.0 0.00 0.00 0.00 75 1014.7
20260906050551 76 0 0.0 2.0 0.00 0.00 0.00 74 1014.8
20260906050130 76 0 0.0 1.0 0.00 0.00 0.00 72 1014.8
20260906045550 77 0 0.0 1.0 0.00 0.00 0.00 72 1014.8
20260906045050 77 0 0.0 3.0 0.00 0.00 0.00 72 1014.9
20260906044605 77 0 0.0 3.0 0.00 0.00 0.00 72 1014.8
20260906044053 78 337 1.0 2.0 0.00 0.00 0.00 72 1014.8
20260906043550 78 0 0.0 0.0 0.00 0.00 0.00 71 1015.0
20260906043103 78 0 0.0 0.0 0.00 0.00 0.00 71 1015.0
20260906042551 78 0 0.0 0.0 0.00 0.00 0.00 71 1015.1
20260906042117 78 0 0.0 1.0 0.00 0.00 0.00 71 1015.0
20260906041603 78 0 0.0 2.0 0.00 0.00 0.00 72 1015.0
20260906041125 77 0 0.0 2.0 0.00 0.00 0.00 71 1015.0
20260906040553 77 70 0.0 1.0 0.00 0.00 0.00 70 1015.0
20260906040137 77 0 0.0 2.0 0.00 0.00 0.00 71 1014.9
20260906035619 77 0 0.0 2.0 0.00 0.00 0.00 71 1014.9
20260906035052 77 0 0.0 1.0 0.00 0.00 0.00 72 1015.0
20260906034607 77 0 0.0 2.0 0.00 0.00 0.00 71 1015.0
20260906034049 77 70 0.0 2.0 0.00 0.00 0.00 71 1014.8
20260906033550 77 70 0.0 2.0 0.00 0.00 0.00 71 1014.7
20260906033104 77 0 0.0 2.0 0.00 0.00 0.00 71 1014.7
20260906032551 78 70 0.0 2.0 0.00 0.00 0.00 71 1014.8
20260906032050 78 70 0.0 2.0 0.00 0.00 0.00 71 1014.9
20260906031702 78 0 0.0 1.0 0.00 0.00 0.00 70 1014.8
20260906030550 78 0 0.0 2.0 0.00 0.00 0.00 68 1014.7
20260906030059 79 0 0.0 3.0 0.00 0.00 0.00 68 1014.7
20260906025551 79 70 1.0 3.0 0.00 0.00 0.00 68 1014.6
20260906025051 79 70 1.0 3.0 0.00 0.00 0.00 67 1014.7
20260906024558 80 70 1.0 2.0 0.00 0.00 0.00 66 1014.7
20260906024050 80 70 1.0 3.0 0.00 0.00 0.00 66 1014.7
20260906023551 80 70 1.0 3.0 0.00 0.00 0.00 65 1014.5
20260906023104 80 35 0.0 1.0 0.00 0.00 0.00 65 1014.3
20260906022552 81 0 0.0 0.0 0.00 0.00 0.00 63 1014.3
20260906022053 81 0 0.0 1.0 0.00 0.00 0.00 64 1014.3
20260906021626 81 0 0.0 3.0 0.00 0.00 0.00 64 1014.3
20260906021052 81 0 1.0 3.0 0.00 0.00 0.00 63 1014.4
20260906020550 81 14 1.0 3.0 0.00 0.00 0.00 63 1014.2
20260906020106 81 110 1.0 3.0 0.00 0.00 0.00 63 1014.0
20260906015550 81 110 0.0 6.0 0.00 0.00 0.00 63 1013.9
20260906015051 81 110 1.0 7.0 0.00 0.00 0.00 63 1013.8
20260906014608 81 325 4.0 7.0 0.00 0.00 0.00 63 1013.9
20260906014049 81 8 3.0 6.0 0.00 0.00 0.00 62 1014.0
20260906013551 82 330 2.0 5.0 0.00 0.00 0.00 62 1013.9
20260906013102 82 58 0.0 2.0 0.00 0.00 0.00 61 1013.8
20260906012555 82 89 0.0 2.0 0.00 0.00 0.00 60 1013.7
20260906012049 83 0 0.0 2.0 0.00 0.00 0.00 60 1013.6
20260906011604 83 89 0.0 1.0 0.00 0.00 0.00 58 1013.5
20260906011054 83 0 0.0 0.0 0.00 0.00 0.00 57 1013.5
20260906010554 84 0 0.0 4.0 0.00 0.00 0.00 57 1013.3
20260906010109 84 0 0.0 4.0 0.00 0.00 0.00 57 1013.2
20260906005550 84 88 2.0 4.0 0.00 0.00 0.00 57 1013.4
20260906005052 84 79 1.0 4.0 0.00 0.00 0.00 56 1013.3
20260906004604 85 0 0.0 4.0 0.00 0.00 0.00 55 1013.3
20260906004050 85 70 1.0 4.0 0.00 0.00 0.00 55 1013.5
20260906003551 85 0 0.0 1.0 0.00 0.00 0.00 55 1013.5
20260906003105 85 0 0.0 3.0 0.00 0.00 0.00 55 1013.4
20260906002549 86 0 0.0 3.0 0.00 0.00 0.00 55 1013.5
20260906002052 86 111 1.0 3.0 0.00 0.00 0.00 54 1013.6
20260906001615 86 0 0.0 1.0 0.00 0.00 0.00 54 1013.5
20260906001059 86 0 0.0 2.0 0.00 0.00 0.00 54 1013.6
20260906000554 87 0 0.0 2.0 0.00 0.00 0.00 53 1013.7
20260905235550 87 119 0.0 4.0 0.00 0.00 0.00 53 1013.7
20260905235058 87 91 1.0 4.0 0.00 0.00 0.00 52 1013.6
20260905234558 87 135 0.0 2.0 0.00 0.00 0.00 52 1013.4
20260905234050 87 0 0.0 2.0 0.00 0.00 0.00 53 1013.4
20260905233550 87 162 0.0 3.0 0.00 0.00 0.00 52 1013.5
20260905233059 87 162 0.0 6.0 0.00 0.00 0.00 52 1013.4
20260905232550 87 0 1.0 6.0 0.00 0.00 0.00 52 1013.5
20260905232051 88 93 2.0 6.0 0.00 0.00 0.00 51 1013.6
20260905231608 88 106 0.0 4.0 0.00 0.00 0.00 52 1013.6
20260905231054 88 106 1.0 7.0 0.00 0.00 0.00 51 1013.5
20260905230550 88 108 2.0 8.0 0.00 0.00 0.00 50 1013.4
20260905230118 88 105 3.0 12.0 0.00 0.00 0.00 50 1013.4
20260905225551 88 87 5.0 12.0 0.00 0.00 0.00 50 1013.6
20260905225050 88 76 4.0 8.0 0.00 0.00 0.00 49 1013.5
20260905224601 89 58 3.0 11.0 0.00 0.00 0.00 50 1013.5
20260905224057 90 37 5.0 12.0 0.00 0.00 0.00 49 1013.4
20260905223549 91 90 7.0 14.0 0.00 0.00 0.00 47 1013.2
20260905223055 92 85 7.0 14.0 0.00 0.00 0.00 45 1013.2
20260905222551 94 86 7.0 16.0 0.00 0.00 0.00 43 1013.2
20260905222050 96 72 8.0 16.0 0.00 0.00 0.00 40 1013.2
20260905221603 97 95 3.0 8.0 0.00 0.00 0.00 37 1013.1
20260905221051 98 27 3.0 9.0 0.00 0.00 0.00 35 1013.1
20260905220550 99 324 4.0 9.0 0.00 0.00 0.00 33 1013.1
20260905220105 100 333 4.0 11.0 0.00 0.00 0.00 32 1013.1
20260905215551 101 360 3.0 11.0 0.00 0.00 0.00 32 1013.1
20260905215126 101 344 2.0 4.0 0.00 0.00 0.00 32 1013.0
20260905214558 100 0 0.0 6.0 0.00 0.00 0.00 32 1013.0
20260905214052 100 307 1.0 7.0 0.00 0.00 0.00 31 1013.0
20260905213550 100 80 1.0 7.0 0.00 0.00 0.00 30 1013.0
20260905213110 100 5 2.0 6.0 0.00 0.00 0.00 32 1013.1
20260905212551 100 332 1.0 4.0 0.00 0.00 0.00 32 1013.1
20260905212051 99 207 1.0 6.0 0.00 0.00 0.00 31 1013.2
20260905211609 100 53 1.0 6.0 0.00 0.00 0.00 31 1013.2
20260905211051 101 68 3.0 6.0 0.00 0.00 0.00 30 1013.2
20260905210551 101 93 2.0 5.0 0.00 0.00 0.00 31 1013.3
20260905210109 101 111 2.0 6.0 0.00 0.00 0.00 31 1013.4
20260905205549 101 90 2.0 6.0 0.00 0.00 0.00 30 1013.4
20260905205051 102 149 1.0 3.0 0.00 0.00 0.00 29 1013.5
20260905204605 102 169 0.0 4.0 0.00 0.00 0.00 30 1013.6
20260905204053 101 0 1.0 4.0 0.00 0.00 0.00 31 1013.7
20260905203550 100 121 1.0 4.0 0.00 0.00 0.00 30 1013.7
20260905203107 101 312 1.0 7.0 0.00 0.00 0.00 30 1013.9
20260905202549 101 190 2.0 7.0 0.00 0.00 0.00 31 1014.0
20260905202051 100 227 1.0 6.0 0.00 0.00 0.00 31 1013.9
20260905201610 100 0 2.0 8.0 0.00 0.00 0.00 31 1014.0
20260905201050 101 160 1.0 8.0 0.00 0.00 0.00 30 1014.1
20260905200551 101 216 2.0 8.0 0.00 0.00 0.00 30 1014.2
20260905200147 101 149 1.0 6.0 0.00 0.00 0.00 34 1014.3
20260905195617 100 177 1.0 10.0 0.00 0.00 0.00 32 1014.3
20260905195050 100 118 3.0 10.0 0.00 0.00 0.00 32 1014.5
20260905194612 101 83 3.0 8.0 0.00 0.00 0.00 31 1014.5
20260905194050 101 125 2.0 6.0 0.00 0.00 0.00 31 1014.6
20260905193549 100 0 1.0 4.0 0.00 0.00 0.00 31 1014.5
20260905193101 101 95 1.0 6.0 0.00 0.00 0.00 30 1014.6
20260905192550 100 116 2.0 6.0 0.00 0.00 0.00 31 1014.7
20260905192051 100 176 1.0 6.0 0.00 0.00 0.00 32 1014.7
20260905191605 99 279 1.0 7.0 0.00 0.00 0.00 35 1014.7
20260905191050 99 35 1.0 7.0 0.00 0.00 0.00 31 1015.0
20260905190550 100 131 3.0 7.0 0.00 0.00 0.00 30 1015.1
20260905185551 97 2 1.0 4.0 0.00 0.00 0.00 35 1015.1
20260905185050 97 0 0.0 6.0 0.00 0.00 0.00 37 1015.2
20260905184610 96 353 2.0 6.0 0.00 0.00 0.00 37 1015.2
20260905184051 96 47 0.0 6.0 0.00 0.00 0.00 38 1015.4
20260905183552 98 92 3.0 6.0 0.00 0.00 0.00 36 1015.4
20260905183055 99 87 3.0 6.0 0.00 0.00 0.00 36 1015.6
20260905182550 98 99 0.0 5.0 0.00 0.00 0.00 37 1015.5
20260905182051 97 328 2.0 5.0 0.00 0.00 0.00 38 1015.7
20260905181601 97 322 1.0 5.0 0.00 0.00 0.00 36 1015.9
20260905181053 98 294 2.0 7.0 0.00 0.00 0.00 37 1015.9
20260905180550 98 5 3.0 7.0 0.00 0.00 0.00 39 1016.0
20260905175549 97 48 4.0 10.0 0.00 0.00 0.00 38 1016.0
20260905175051 98 48 4.0 7.0 0.00 0.00 0.00 40 1016.0
20260905174601 97 32 2.0 7.0 0.00 0.00 0.00 42 1016.1
20260905174053 97 4 2.0 6.0 0.00 0.00 0.00 41 1016.1
20260905173552 97 89 1.0 5.0 0.00 0.00 0.00 39 1016.1
20260905173105 97 189 1.0 8.0 0.00 0.00 0.00 40 1016.2
20260905172550 96 302 3.0 8.0 0.00 0.00 0.00 42 1016.2
20260905172051 96 89 1.0 5.0 0.00 0.00 0.00 43 1016.3
20260905171607 96 0 2.0 6.0 0.00 0.00 0.00 42 1016.4
20260905171051 96 284 3.0 6.0 0.00 0.00 0.00 44 1016.4
20260905170551 96 1 2.0 7.0 0.00 0.00 0.00 44 1016.5
20260905170101 95 69 3.0 7.0 0.00 0.00 0.00 42 1016.6
20260905165550 94 0 0.0 7.0 0.00 0.00 0.00 45 1016.7
20260905165052 95 228 3.0 9.0 0.00 0.00 0.00 45 1016.8
20260905164606 95 247 3.0 9.0 0.00 0.00 0.00 46 1016.8
20260905164049 95 21 3.0 9.0 0.00 0.00 0.00 45 1016.8
20260905163550 95 355 3.0 8.0 0.00 0.00 0.00 43 1016.7
20260905163109 94 316 2.0 8.0 0.00 0.00 0.00 47 1016.9
20260905162552 94 337 2.0 8.0 0.00 0.00 0.00 49 1016.8
20260905162050 94 56 2.0 8.0 0.00 0.00 0.00 48 1016.9
20260905161615 93 54 2.0 8.0 0.00 0.00 0.00 51 1016.8
20260905161050 92 0 1.0 6.0 0.00 0.00 0.00 51 1016.9
20260905160551 92 9 3.0 6.0 0.00 0.00 0.00 50 1017.0
20260905160101 92 319 1.0 7.0 0.00 0.00 0.00 51 1017.1
20260905155550 92 0 2.0 7.0 0.00 0.00 0.00 53 1017.0
20260905155051 91 299 1.0 5.0 0.00 0.00 0.00 54 1017.0
20260905154557 91 0 2.0 7.0 0.00 0.00 0.00 54 1017.1
20260905154052 91 324 4.0 7.0 0.00 0.00 0.00 53 1017.1
20260905153550 91 355 3.0 5.0 0.00 0.00 0.00 54 1017.1